Starlink 30175

operational
NORAD ID: 57311 Int'l Des: 2023-096 Owner: SPXS Country: US Constellation: starlink
LEOCIRCULAR

About Starlink 30175

Description loading...

Live Position

Loading 3D Globe...

Upcoming Passes

Altitude History

Altitude vs Time

uPlot chart will show altitude changes over time

Two-Line Element Set

1 57311U 23096X 25260.47145862 .00045621 00000-0 20805-2 0 9994
2 57311 42.9962 69.7187 0019896 281.3898 78.4715 15.19759412120831
Epoch: Sep 17, 2025 • Age: 23 hours

Current Status

Altitude 522.7 km
Velocity 7.60 km/s
Sub-Earth Point 40.96°N, 31.13°E
Launch Date Jul 10, 2023
Age 2.1 years
Type internet

Technical Details

Classification Payload
Mass 730.00 kg
Dry Mass 700.00 kg
Total Mass 730.00 kg
Length 0.30 m
Diameter 4.10 m
Span 29.00 m
Shape Box + pan
Manufacturer SPXS
Bus Type Starlink V2M
Phase Status In Orbit
Owner/State SPXS/US

Large Constellations

Loading constellations...